Location: *
(35.2348°S, 91.3916°E)
Time: 23:02:34
(UTC+00:00)

Okean 3 Rocket - Pass Details

Date: 23 October 2019
Orbit: 615 x 645 km, 82.5° (Epoch: 11 November)

Event Time Altitude Azimuth Distance (km) Brightness Sun altitude
Exits shadow 13:30:46 14° 17° (NNE) 1,715 5.4 -15.2°
Maximum altitude 13:34:16 47° 88° (E) 833 3.8 -15.8°
Drops below altitude 10° 13:38:32 10° 161° (SSE) 2,007 6.3 -16.6°
Sets 13:40:50 0° 166° (SSE) 2,921 7.2 -17.0°
